[[{"header":{"parameterUnit":"m.s-1","parameterCategory":1,"la1":30.2991,"la2":30.254,"lo1":-89.0895,"lo2":-89.0444,"dy":0.0017,"dx":0.0017,"nx":28,"ny":28,"refTime":"2023-09-21T03:00:00:Z","depth":0,"parameterNumber":2,"parameterNumberName":"U-component_of_WINDS"},"data":[0,0,0,0,0,0,0,0,0,0,0,0,0,0,0,0,0,0,0,0,0,0,0,0,0,0,0,0,0,0,0,0,0,0,0,0,0,0,0,0,0,0,0,0,0,0,0,0,0,0,0,0,0,0,0,0,0,0,-7.0521,-7.0522,0,-7.0636,-7.0637,-7.0639,-7.0526,-7.0522,-7.0517,-7.0513,-7.0629,-7.0636,-7.0643,0,0,0,0,0,0,0,0,0,0,0,0,0,-7.0201,-7.0208,-7.0521,-7.0522,-7.0524,-7.0636,-7.0637,-7.0639,-7.0527,-7.0521,-7.0516,-7.0511,-7.0626,-7.0635,-7.0644,0,0,0,0,0,0,0,0,0,0,0,0,0,-7.0331,-7.021,-7.0521,-7.0481,-7.0479,-7.0635,-7.0637,-7.0639,-7.0528,-7.0521,-7.0515,-7.0508,-7.0624,-7.0634,-7.0645,-7.0845,0,0,-7.0678,-7.0683,0,0,0,0,0,0,0,0,-7.0323,-7.0342,-7.0486,-7.0484,-7.0482,-7.056,-7.0567,-7.0708,-7.053,-7.0509,-7.0513,-7.0505,-7.0611,-7.0623,-7.0659,-7.0851,-7.0856,-7.0679,-7.0685,-7.069,-7.0693,0,0,0,0,0,0,0,-7.0315,-7.0337,-7.0566,-7.0488,-7.0486,-7.0457,-7.0468,-7.0593,-7.0596,-7.0511,-7.0503,-7.0518,-7.0609,-7.0649,-7.0661,-7.0857,-7.0679,-7.0688,-7.0695,-7.0699,-7.1216,-7.1223,0,0,0,0,0,0,-7.031,-7.033,-7.0563,-7.057,-7.0385,-7.0468,-7.0481,-7.0542,-7.0594,-7.0596,-7.0523,-7.0512,-7.0633,-7.0648,-7.0664,-7.0899,-7.069,-7.07,-7.0706,-7.1209,-7.1217,-7.1225,0,0,0,0,0,0,-7.0304,-7.0332,-7.0558,-7.0448,-7.0474,-7.0481,-7.055,-7.0547,-7.0587,-7.0604,-7.0604,-7.0564,-7.0629,-7.0649,-7.08,-7.0901,-7.0705,-7.0715,-7.12,-7.1211,-7.1221,-7.1372,0,0,0,0,0,0,-7.0295,-7.033,-7.0407,-7.0451,-7.0481,-7.0693,-7.0557,-7.0554,-7.0606,-7.0592,-7.0642,-7.0644,-7.0625,-7.0785,-7.0811,-7.0913,-7.0723,-7.1191,-7.1205,-7.1218,-7.1358,-7.1386,-7.1411,0,0,0,0,0,-7.0284,-7.0446,-7.0412,-7.044,-7.0577,-7.07,-7.0717,-7.0692,-7.0615,-7.0691,-7.0702,-7.0642,-7.0887,-7.0801,-7.083,-7.0936,-7.1184,-7.1201,-7.1217,-7.1346,-7.1381,-7.141,0,0,0,0,0,0,-7.0414,-7.045,-7.0413,-7.0594,-7.0645,-7.068,-7.0776,-7.0731,-7.0804,-7.0788,-7.0754,-7.0767,-7.0926,-7.0947,-7.0851,-7.1131,-7.1023,-7.1046,-7.1111,-7.1144,-7.1171,-7.116,-7.0732,0,0,0,0,0,-7.0463,-7.056,-7.0587,-7.0744,-7.0771,-7.077,-7.0822,-7.0799,-7.085,-7.087,-7.0892,-7.0943,-7.1031,-7.109,-7.1172,-7.1362,-7.1369,-7.1449,-7.1476,-7.1497,-7.1516,-7.1614,-7.1649,-7.1278,-7.1278,-7.1278,0,0,-7.0566,-7.0599,-7.0662,-7.0771,-7.0807,-7.0906,-7.0788,-7.0899,-7.0972,-7.0887,-7.103,-7.1049,-7.1103,-7.1273,-7.135,-7.1296,-7.1621,-7.1518,-7.1535,-7.1542,-7.1634,-7.1669,-7.17,-7.1289,-7.1287,-7.1286,0,0,-7.0804,-7.084,-7.0972,-7.1012,-7.1068,-7.1066,-7.1098,-7.1142,-7.115,-7.1294,-7.1231,-7.1317,-7.1471,-7.1511,-7.1552,-7.1805,-7.1751,-7.1833,-7.197,-7.2066,-7.2095,-7.2121,-7.2207,-7.2239,-7.1853,-7.1853,-7.1853,0,-7.0924,-7.1073,-7.1046,-7.1161,-7.1209,-7.1138,-7.127,-7.131,-7.1391,-7.1425,-7.1364,-7.1553,-7.1585,-7.1762,-7.1824,-7.1861,-7.1894,-7.1825,-7.2094,-7.2119,-7.2142,-7.2224,-7.2257,-7.1862,-7.1861,-7.186,-7.1859,0,-7.1216,-7.132,-7.142,-7.1499,-7.1559,-7.1683,-7.1673,-7.1738,-7.171,-7.1714,-7.186,-7.1896,-7.1983,-7.2024,-7.1999,-7.2198,-7.2162,-7.2099,-7.1988,-7.2187,-7.2263,-7.2295,-7.1875,-7.1872,-7.1869,-7.1867,0,0,-7.1535,-7.1599,-7.1635,-7.1669,-7.1727,-7.1806,-7.1926,-7.2011,-7.2064,-7.2124,-7.2221,-7.2352,-7.2293,-7.234,-7.2318,-7.2404,-7.2597,-7.2329,-7.233,-7.2373,-7.2813,-7.2857,-7.2894,-7.2563,-7.2569,-7.2574,-7.2807,0,-7.1771,-7.1978,-7.1958,-7.2154,-7.2248,-7.2182,-7.2286,-7.2332,-7.2339,-7.2419,-7.2427,-7.2519,-7.2437,-7.2463,-7.2545,-7.2556,-7.2684,-7.254,-7.265,-7.2654,-7.2633,-7.2934,-7.2981,-7.3199,-7.2837,-7.2842,-7.2846,0,-7.2073,-7.2141,-7.2347,-7.2388,-7.2427,-7.252,-7.2595,-7.2674,-7.2724,-7.2723,-7.2775,-7.2739,-7.2857,-7.2748,-7.2909,-7.2812,-7.2857,-7.2869,-7.2877,-7.2882,-7.2759,-7.2943,-7.3268,-7.3299,-7.2893,-7.2889,-7.2886,0,-7.2279,-7.2424,-7.2564,-7.2596,-7.2649,-7.2715,-7.2741,-7.2784,-7.2836,-7.2903,-7.2935,-7.3015,-7.3058,-7.312,-7.3105,-7.3028,-7.3269,-7.3159,-7.3268,-7.3269,-7.3318,-7.3314,-7.365,-7.3356,-7.3355,-7.3355,-7.3354,0,-7.2541,-7.2669,-7.2657,-7.2743,-7.2883,-7.2859,-7.2998,-7.3014,-7.3054,-7.3141,-7.3091,-7.3173,-7.3152,-7.3233,-7.3223,-7.3356,-7.3377,-7.3377,-7.3372,-7.3379,-7.3378,-7.3404,-7.3387,-7.3363,-7.3361,-7.336,-7.3358,0,-7.2793,-7.2792,-7.2939,-7.2978,-7.299,-7.3091,-7.3123,-7.3203,-7.3207,-7.3318,-7.3343,-7.3349,-7.3442,-7.3435,-7.3541,-7.3533,-7.3696,-7.3676,-7.3679,-7.3672,-7.378,-7.3768,-7.414,-7.4186,-7.3867,-7.387,-7.3873,0,-7.2958,-7.3054,-7.3103,-7.3157,-7.3187,-7.3276,-7.3328,-7.3309,-7.3365,-7.3429,-7.3501,-7.359,-7.3659,-7.3811,-7.3824,-7.3904,-7.3882,-7.4007,-7.3893,-7.3896,-7.3878,-7.387,-7.3878,-7.4028,-7.4031,-7.4034,-7.4037,0,-7.325,-7.3244,-7.3321,-7.3399,-7.3463,-7.3523,-7.3578,-7.3625,-7.3611,-7.3677,-7.3771,-7.3826,-7.3933,-7.402,-7.4096,-7.412,-7.4076,-7.4073,-7.4102,-7.4107,-7.4103,-7.4102,-7.3734,-7.4063,-7.4061,-7.4059,-7.4057,-7.4056,-7.346,-7.354,-7.3586,-7.3674,-7.3713,-7.3765,-7.3842,-7.3855,-7.3934,-7.4019,-7.4004,-7.4109,-7.4155,-7.4253,-7.4285,-7.4366,-7.4321,-7.4364,-7.4373,-7.4383,-7.4393,-7.4095,-7.4381,-7.438,-7.4379,-7.4379,-7.4378,0,-7.3744,-7.377,-7.3851,-7.3929,-7.3998,-7.3952,-7.401,-7.4069,-7.4163,-7.4211,-7.428,-7.4387,-7.4472,-7.4493,-7.4573,-7.4634,-7.4615,-7.4656,-7.4648,-7.4654,-7.4431,-7.4396,-7.4669,-7.4669,-7.4669,-7.4669,-7.4669,-7.4669,-7.3899,-7.4032,-7.4032,-7.4184,-7.4209,-7.4312,-7.4348,-7.4395,-7.4433,-7.4555,-7.4625,-7.4638,-7.4674,-7.4757,-7.4832,-7.4836,-7.4866,-7.4914,-7.4909,-7.4699,-7.467,-7.4642,-7.4608,-7.4922,-7.4922,-7.5124,-7.5126,-7.5127]},{"header":{"parameterUnit":"m.s-1","parameterCategory":1,"la1":30.2991,"la2":30.254,"lo1":-89.0895,"lo2":-89.0444,"dy":0.0017,"dx":0.0017,"nx":28,"ny":28,"refTime":"2023-09-21T03:00:00:Z","depth":0,"parameterNumber":3,"parameterNumberName":"V-component_of_WINDS"},"data":[0,0,0,0,0,0,0,0,0,0,0,0,0,0,0,0,0,0,0,0,0,0,0,0,0,0,0,0,0,0,0,0,0,0,0,0,0,0,0,0,0,0,0,0,0,0,0,0,0,0,0,0,0,0,0,0,0,0,0.1669,0.167,0,0.176,0.1761,0.1762,0.1762,0.1761,0.176,0.1759,0.1854,0.1857,0.1861,0,0,0,0,0,0,0,0,0,0,0,0,0,0.1498,0.1501,0.1669,0.167,0.1671,0.176,0.1761,0.1762,0.1762,0.1761,0.1759,0.1758,0.1852,0.1857,0.1861,0,0,0,0,0,0,0,0,0,0,0,0,0,0.1579,0.1502,0.1669,0.1682,0.1684,0.176,0.1761,0.1763,0.1763,0.1761,0.1759,0.1757,0.1851,0.1856,0.1862,0.1931,0,0,0.1878,0.1881,0,0,0,0,0,0,0,0,0.1574,0.1585,0.1679,0.1681,0.1684,0.1748,0.1736,0.1819,0.1763,0.1733,0.1758,0.1756,0.182,0.1828,0.1849,0.1936,0.194,0.1879,0.1882,0.1884,0.1886,0,0,0,0,0,0,0,0.1569,0.1581,0.1705,0.168,0.1683,0.1684,0.1694,0.1752,0.1785,0.1735,0.1735,0.1746,0.1821,0.1844,0.1851,0.1941,0.1879,0.1884,0.1887,0.1889,0.2092,0.2094,0,0,0,0,0,0,0.156,0.1577,0.1702,0.1708,0.1623,0.1689,0.1699,0.1729,0.1785,0.1791,0.1748,0.1746,0.1835,0.1845,0.1855,0.1941,0.1884,0.189,0.1893,0.209,0.2092,0.2094,0,0,0,0,0,0,0.1557,0.1571,0.1699,0.1642,0.1659,0.1693,0.1727,0.1732,0.1755,0.1794,0.18,0.1764,0.1834,0.1847,0.1913,0.1945,0.1892,0.1897,0.2087,0.209,0.2093,0.2114,0,0,0,0,0,0,0.1552,0.157,0.1596,0.1643,0.1662,0.1754,0.1729,0.1735,0.1764,0.1762,0.1811,0.1818,0.1834,0.1904,0.1918,0.1951,0.1901,0.2084,0.2089,0.2092,0.2111,0.2118,0.2124,0,0,0,0,0,0.1546,0.1598,0.1597,0.1613,0.1695,0.1756,0.1767,0.1783,0.1766,0.1793,0.1819,0.1816,0.1938,0.1911,0.1926,0.1962,0.2083,0.2087,0.2092,0.2108,0.2116,0.2123,0,0,0,0,0,0,0.1555,0.1605,0.1604,0.1673,0.1711,0.1756,0.179,0.1791,0.1835,0.1832,0.1851,0.1862,0.1928,0.1951,0.192,0.2033,0.2009,0.2017,0.2016,0.2024,0.203,0.2024,0.1906,0,0,0,0,0,0.1564,0.1609,0.1651,0.1708,0.1727,0.1755,0.1783,0.1792,0.1832,0.1848,0.1878,0.1917,0.1964,0.1995,0.2041,0.2114,0.2126,0.2146,0.2152,0.2157,0.2164,0.2207,0.2217,0.211,0.211,0.211,0,0,0.1586,0.1619,0.1646,0.1711,0.1741,0.1788,0.1769,0.1819,0.1855,0.1855,0.192,0.1943,0.1988,0.2058,0.2091,0.208,0.2196,0.2163,0.2167,0.2172,0.2213,0.2223,0.2232,0.2113,0.2113,0.2112,0,0,0.1649,0.1677,0.1729,0.176,0.1805,0.1824,0.1836,0.1882,0.1898,0.1962,0.1965,0.2008,0.2088,0.2121,0.2148,0.2225,0.2225,0.2239,0.2273,0.2314,0.2322,0.233,0.2359,0.237,0.2246,0.2246,0.2246,0,0.167,0.174,0.1756,0.1807,0.1836,0.1839,0.1892,0.1921,0.1979,0.2,0.1987,0.2089,0.2119,0.2198,0.2217,0.2238,0.2255,0.2234,0.232,0.2328,0.2335,0.2363,0.2374,0.2247,0.2247,0.2247,0.2247,0,0.1765,0.1814,0.185,0.1906,0.194,0.1992,0.2016,0.2048,0.2055,0.2076,0.2143,0.2179,0.2233,0.2252,0.226,0.2333,0.2325,0.2315,0.2292,0.2347,0.2374,0.2384,0.225,0.2249,0.2249,0.2248,0,0,0.1837,0.1901,0.1915,0.1941,0.1992,0.203,0.2083,0.2135,0.2163,0.2204,0.225,0.2318,0.231,0.2341,0.2352,0.2388,0.2449,0.2374,0.2375,0.2388,0.2535,0.2543,0.2555,0.2449,0.2451,0.2452,0.2531,0,0.1907,0.2,0.2016,0.2098,0.2145,0.2148,0.2194,0.2231,0.2252,0.2296,0.2319,0.2368,0.2353,0.2372,0.2407,0.2434,0.2479,0.2428,0.2493,0.2495,0.2483,0.2569,0.2577,0.265,0.2542,0.2544,0.2545,0,0.2001,0.2044,0.213,0.2176,0.2197,0.2238,0.2288,0.2329,0.2371,0.2384,0.2419,0.2426,0.2483,0.2455,0.2534,0.2499,0.2527,0.2544,0.2547,0.2556,0.2525,0.2581,0.2673,0.2685,0.2561,0.256,0.2559,0,0.2047,0.2126,0.2189,0.2211,0.2266,0.2295,0.2319,0.236,0.2391,0.2435,0.2456,0.2506,0.2533,0.2573,0.2594,0.2571,0.2672,0.2646,0.2686,0.2686,0.2708,0.2707,0.2808,0.2723,0.2723,0.2722,0.2722,0,0.2125,0.2178,0.2211,0.2249,0.231,0.2328,0.2388,0.2412,0.2448,0.2492,0.2498,0.254,0.2564,0.261,0.2627,0.2691,0.2703,0.2716,0.272,0.2717,0.2715,0.2736,0.2732,0.2725,0.2725,0.2724,0.2724,0,0.2187,0.2211,0.228,0.2326,0.2339,0.2381,0.2422,0.246,0.2481,0.2537,0.2551,0.2585,0.2639,0.2663,0.273,0.2742,0.2815,0.2815,0.2801,0.2803,0.2842,0.2839,0.2962,0.2981,0.2881,0.2882,0.2883,0,0.2236,0.2277,0.2328,0.2358,0.2383,0.2431,0.2463,0.2483,0.2516,0.2568,0.2601,0.2655,0.27,0.2786,0.2817,0.2869,0.2871,0.2911,0.2879,0.2875,0.2874,0.2872,0.2877,0.2917,0.2918,0.2919,0.2919,0,0.2321,0.2331,0.2376,0.2426,0.2464,0.2504,0.2544,0.2568,0.2595,0.2632,0.2687,0.2722,0.279,0.2845,0.2899,0.2925,0.2928,0.2929,0.2941,0.2939,0.293,0.2938,0.2819,0.2926,0.2926,0.2925,0.2925,0.2925,0.2379,0.2417,0.2459,0.251,0.2542,0.2579,0.2618,0.2644,0.269,0.2747,0.2756,0.2816,0.2859,0.2931,0.2959,0.3007,0.2998,0.3015,0.302,0.3025,0.3028,0.2921,0.3017,0.3017,0.3017,0.3016,0.3016,0,0.2467,0.2494,0.254,0.2596,0.2636,0.2634,0.2678,0.2712,0.2764,0.2804,0.2848,0.2912,0.2966,0.3001,0.3055,0.3086,0.3089,0.31,0.3099,0.3106,0.3032,0.3017,0.3097,0.3097,0.3097,0.3097,0.3097,0.3097,0.2517,0.2581,0.2596,0.2676,0.2703,0.2762,0.2787,0.2822,0.2854,0.2926,0.297,0.2992,0.3031,0.3088,0.3137,0.3146,0.3167,0.3179,0.3188,0.3119,0.311,0.3102,0.3088,0.3182,0.3182,0.3257,0.3258,0.3258]}]]